Regional Weather Roundup
Issued by NWS

Home | Current Version | Previous Version | Graphics & Text | Print | Product List | Glossary On
Versions: 1 2 3 4 5 6 7 8 9 10 11 12 13 14 15 16 17 18 19 20 21 22 23 24 25 26 27 28 29 30 31 32 33 34 35 36 37 38 39 40 41 42 43 44 45 46 47 48 49 50
777
ASUS43 KFSD 210702
RWRSD

WEATHER ROUNDUP FOR SOUTH DAKOTA
NATIONAL WEATHER SERVICE SIOUX FALLS SD
200 AM CDT THU SEP 21 2017

NOTE: "FAIR" INDICATES FEW OR NO CLOUDS BELOW 12,000 FEET WITH NO
SIGNIFICANT WEATHER AND/OR OBSTRUCTIONS TO VISIBILITY.


SDZ001>005-009-010-012>017-210800-
NORTHWEST AND NORTH CENTRAL SOUTH DAKOTA

CITY           SKY/WX    TMP DP  RH WIND       PRES   REMARKS
BUFFALO          N/A     65  33  30 S22G36    29.60F
FAITH            N/A     60  36  40 S12       29.75R
MOBRIDGE       CLEAR     59  43  55 SE14      29.75F
$$

SDZ012>016-024>037-041>051-057-063-072>074-210800-
SOUTHWEST AND SOUTH CENTRAL SOUTH DAKOTA

CITY           SKY/WX    TMP DP  RH WIND       PRES   REMARKS
RAPID CTY ARPT NOT AVBL
PIERRE         CLEAR     59  40  49 SE18      29.77F
CUSTER         CLOUDY    54  28  36 S6        29.83F
ELLSWORTH AFB  CLEAR     54  37  52 SE5       29.73F
PHILIP         CLEAR     57  38  48 CALM      29.75F
PINE RIDGE     CLEAR     65  34  31 S22G36    29.75F
SPEARFISH      FAIR      57  41  54 SE7       29.75F
WINNER         FAIR      64  44  48 S15       29.82S
$$

SDZ004>011-016>023-039-040-210800-
NORTHEAST SOUTH DAKOTA

CITY           SKY/WX    TMP DP  RH WIND       PRES   REMARKS
ABERDEEN       CLEAR     50  46  86 S9        29.83S
WATERTOWN      CLEAR     53  46  77 S8        29.89S
BROOKINGS      CLEAR     51  45  79 SE9       29.93R
SISSETON         N/A     50  46  86 SE7       29.88S
$$

SDZ017-020-022-023-036>040-048>070-210800-
SOUTHEAST SOUTH DAKOTA

CITY           SKY/WX    TMP DP  RH WIND       PRES   REMARKS
SIOUX FALLS    CLEAR     50  48  93 E5        29.93R
HURON          CLEAR     55  47  74 SE10      29.86S
CHAMBERLAIN    CLEAR     55  49  81 SE7       29.83S
MITCHELL       CLEAR     54  48  80 SE7       29.88S
YANKTON        CLEAR     50  48  93 NE3       29.91R
$$

ABBREVIATIONS USED IN REMARKS
   TC - TEMPERATURE IN CELSIUS
  WCI - WIND CHILL INDEX
   HX - HEAT INDEX
  VSB - VISIBILITY





USA.gov is the U.S. government's official web portal to all federal, state and local government web resources and services.